7 * 24
多渠道服务支持
STARLINK-38384(NORAD 100554)是SpaceX星链巨型低轨宽带星座的组网卫星之一,隶属于该公司规划的全球高速互联网接入项目。截至2026年9月,星链在役卫星规模已突破11000颗,该星采用SpaceX标准化星链卫星平台,运行于近地轨道,承担地面偏远区域及移动场景下的宽带通信中继服务,其编目信息由美国太空军第18太空防御中队纳入太空目标监测序列,为轨道交通安全管理及星座运行维护提供数据支撑。(151字)
美国
(US)
| 数据来源 | 国际轨道数据 |
| 星历时间: | 2026-09-14T07:13:52+0800 8小时前 查看轨道信息 |
| 半长轴: | 6715.414km |
| 偏心率: | 0.0003672 |
| 轨道倾角: | 69.999° |
| 近地点辐角 | 272.719° |
| 升交点赤经 | 153.950° |
| 平近点角 | 87.359° |
| 近地点: | 334.811km |
| 远地点: | 339.743km |
| 周期: | 91.279分钟 |
| 每日圈数: | 15.77588 |